Flag for U.S.A. Weather past 2 weeks in Baltimore, Maryland, U.S.A.

Now
67 °F

Broken clouds.


Feels Like: 67 °F
Forecast: 59 / 73 °F
Wind: No wind

Location: Baltimore-Washington International Airport

Current Time: Oct 2, 2014 at 10:57:12 AM

Latest Report: Oct 2, 2014 at 9:54 AM


Visibility: 8 mi

Pressure: 30.14 "Hg

Humidity: 76%

Dew point: 59 °F

Location of BaltimoreLocation

Historic Weather in Baltimore — Graph

°F

Baltimore temperature yesterday

Maximum temperature yesterday: 73 °F (at 4:54 PM)
Minimum temperature yesterday: 61 °F (at 11:54 PM)
Average temperature yesterday: 66 °F

Past Weeks' High & Low Weather Summary

 TemperatureHumidityPressure
High82 °F (Sep 21, 2:54 PM)100% (Sep 21, 7:54 AM)30.46 "Hg (Sep 21, 7:54 AM)
Low46 °F (Sep 23, 4:54 AM)35% (Sep 23, 1:54 PM)29.64 "Hg (Sep 21, 4:54 PM)
Average65 °F75%30.11 "Hg
* Reported Sep 17 9:54 AM — Oct 2 9:54 AM, Baltimore, Weather by CustomWeather, © 2014

Note: Actual official high and low records may vary slightly from our data, if they occured in-between our weather recording intervals... More about our weather records

Advertising

Baltimore weather history for previous 24 hours

 ConditionsComfort  
Time TempWeatherWind HumidityBarometerVisibility
9:54 AM
Oct 2
67 °FBroken clouds.No wind76%30.14 "Hg8 mi
8:54 AM64 °FPartly sunny.No wind84%30.14 "Hg6 mi
7:54 AM61 °FMostly cloudy.No wind90%30.13 "Hg8 mi
6:54 AM59 °FPassing clouds.No wind93%30.11 "Hg7 mi
5:54 AM59 °FPassing clouds.No wind93%30.10 "Hg9 mi
4:54 AM58 °FPassing clouds.No wind93%30.09 "Hg8 mi
3:54 AM58 °FPassing clouds.No wind97%30.08 "Hg7 mi
2:54 AM58 °FClear.3 mph93%30.08 "Hg8 mi
1:54 AM60 °FPassing clouds.No wind90%30.08 "Hg9 mi
12:54 AM60 °FPassing clouds.No wind93%30.08 "Hg9 mi
11:54 PM
Oct 1
61 °FPassing clouds.No wind90%30.07 "Hg9 mi
10:54 PM63 °FPassing clouds.No wind87%30.07 "Hg10 mi
9:54 PM63 °FPassing clouds.No wind84%30.05 "Hg10 mi
8:54 PM63 °FPassing clouds.No wind87%30.04 "Hg10 mi
7:54 PM67 °FPassing clouds.3 mph76%30.03 "Hg10 mi
6:54 PM70 °FScattered clouds.3 mph66%30.02 "Hg10 mi
5:54 PM72 °FSunny.3 mph59%30.01 "Hg10 mi
4:54 PM73 °FScattered clouds.No wind59%30.00 "Hg10 mi
3:54 PM72 °FBroken clouds.6 mph61%30.00 "Hg10 mi
2:54 PM71 °FBroken clouds.No wind63%30.01 "Hg10 mi
1:54 PM71 °FMore clouds than sun.6 mph66%30.02 "Hg10 mi
12:54 PM69 °FMostly cloudy.No wind70%30.03 "Hg10 mi
11:54 AM69 °FPartly sunny.7 mph73%30.04 "Hg10 mi
11:01 AM68 °FPartly sunny.9 mph78%30.04 "Hg10 mi
Weather by CustomWeather, © 2014

See weather overviewHow to use our weather pages